sat.trackr.live / text

‹ back to catalog

STARLINK-35548

NORAD 66203 · 2025-243AC

PAYLOAD ACTIVE UNKNOWN

§ Identity

Operator
Country
US
Launch date
2025-10-26
Launch site
AFETR
Launch vehicle
Mass (kg)
RCS (m²)

Purposes: comms

External: N2YO · Heavens-Above · Gunter

§ Orbital elements

Epoch: 2026-05-24T15:36:20.627136Z

Period
94.11 min
Inclination
53.1580°
Eccentricity
0.0001023
Mean motion
15.30191762 rev/d
Perigee alt
474.5 km
Apogee alt
475.9 km
Semi-major
6,853.4 km
B*
9.2947e-4
RAAN
252.4217°
Arg perigee
80.7255°
Mean anomaly
279.3861°
Rev number
3,228

§ Raw data

STARLINK-355481 66203U 25243AC  26144.65023874  .00027263  00000+0  92947-3 0  99982 66203  53.1580 252.4217 0001023  80.7255 279.3861 15.30191762 32283

JSON: /api/v1/satellites/66203 · /tle

For live sub-satellite position, see the globe view (requires WebGL).

§ Visibility from observer

Set your observer location to see the next 7 days of passes ≥ 10°. The values pass through the URL so the page stays shareable.

No JS? Fill the form by hand. The geolocation button needs JavaScript.